If you wish to contribute or participate in the discussions about articles you are invited to join SKYbrary as a registered user

 Actions

Antwerp

From SKYbrary Wiki

EBAW
Airport
ICAO: EBAW – IATA: ANR
Summary
Name Antwerp
Region Europe
Territory Belgium BE.gif
Location Deurne, Antwerpen
Serving Antwerpen
Elevation 11.887 m
39 ft
39 ft11.887 m
Coordinates 51° 11' 22.56" N, 4° 27' 44.00" E
Runways
Designator Length Width Surface ROPS
11/29 1510 m4,954.068 ft
45 m147.638 ft
ASP yes/yes


METAR
Observation EBAW 230450Z 08004KT 4500 -RA BR SCT040 11/10 Q1019 TEMPO 6000 NSW
Station Antwerpen / Deurne
Date/Time 23 October 2019 04:50:00
Wind direction 80°
Wind speed 04 kts
Lowest cloud amount scattered clouds
Temperature 11°C
Dew point 10°C
Humidity 93%
QNH 1019 hPa
Weather condition n/a

Antwerpen International Airport

ICAO: EBAW IATA: ANR

Description

Antwerpen International Airport is located 2 km1.08 nm
2,000 m
6,561.68 ft
from the city of Antwerp, Belgium.

Climatology

Temperate Marine climate/Oceanic climate (Köppen climate classification Cfb) - Moderately cool summer and comparatively warm winter.

Maps

Terrain

Loading map...

Airport Layout

Loading map...


Accidents & Serious Incidents at or in vicinity of EBAW

None on SKYbrary